Flag for France Weather past 2 weeks in Paris, France

Now
66 °F

Broken clouds.


Feels Like: 66 °F
Forecast: 50 / 67 °F
Wind: 12 mph from Southwest

Location: Villacoublay

Current Time: May 3, 2015 at 4:56:10 PM

Latest Report: May 3, 2015 at 4:30 PM


Visibility: N/A

Pressure: 29.65 "Hg

Humidity: 83%

Dew point: 61 °F

Location of ParisLocation

Historic Weather in Paris — Graph

°F

Paris temperature yesterday

Maximum temperature yesterday: 55 °F (at 3:00 PM)
Minimum temperature yesterday: 46 °F (at 1:30 AM)
Average temperature yesterday: 50 °F

Past Weeks' High & Low Weather Summary

 TemperatureHumidityPressure
High72 °F (Apr 21, 4:00 PM)100% (Apr 25, 4:30 AM)30.42 "Hg (Apr 25, 4:30 AM)
Low37 °F (Apr 28, 6:00 AM)20% (Apr 20, 6:00 PM)29.62 "Hg (Apr 26, 7:30 PM)
Average54 °F70%29.97 "Hg
* Reported Apr 18 3:00 PM — May 3 3:30 PM, Paris, Weather by CustomWeather, © 2015

Note: Actual official high and low records may vary slightly from our data, if they occured in-between our weather recording intervals... More about our weather records

Advertising

Paris weather history for previous 24 hours

 ConditionsComfort  
Time TempWeatherWind HumidityBarometerVisibility
3:30 PM
Sun, May 3
63 °FMostly cloudy.15 mph83%29.65 "HgN/A
3:00 PM63 °FMostly cloudy.14 mph83%29.65 "HgN/A
2:30 PM63 °FPartly sunny.13 mph88%29.62 "HgN/A
2:00 PM61 °FMostly cloudy.10 mph88%29.62 "HgN/A
1:30 PM61 °FMostly cloudy.13 mph88%29.62 "HgN/A
1:00 PM59 °FOvercast.13 mph94%29.62 "HgN/A
12:30 PM59 °FOvercast.12 mph94%29.62 "HgN/A
12:00 PM59 °FMostly cloudy.13 mph94%29.62 "HgN/A
11:30 AM59 °FLight rain. Mostly cloudy.12 mph94%29.62 "HgN/A
11:00 AM57 °FLight rain. Mostly cloudy.12 mph100%29.62 "HgN/A
10:30 AM57 °FRain. Mostly cloudy.10 mph100%29.62 "HgN/A
10:00 AM57 °FLight rain. Low clouds.10 mph94%29.62 "HgN/A
9:30 AM57 °FRain. Low clouds.8 mph94%29.62 "HgN/A
9:00 AM57 °FLight rain. Low clouds.8 mph94%29.65 "HgN/A
8:30 AM55 °FLight rain. Low clouds.7 mph100%29.65 "HgN/A
8:00 AM55 °FMostly cloudy.9 mph100%29.65 "HgN/A
7:30 AM55 °FLow clouds.10 mph100%29.62 "HgN/A
7:00 AM55 °FLow clouds.12 mph94%29.62 "HgN/A
6:30 AM55 °FLow clouds.12 mph94%29.62 "HgN/A
6:00 AM55 °FLow clouds.10 mph94%29.62 "HgN/A
5:30 AM55 °FLow clouds.10 mph100%29.62 "Hg5 mi
5:00 AM55 °FMostly cloudy.12 mph100%29.65 "HgN/A
4:30 AM55 °FDrizzle. Low clouds.10 mph94%29.65 "Hg5 mi
4:00 AM55 °FMostly cloudy.10 mph100%29.65 "HgN/A
3:30 AM55 °FLow clouds.9 mph100%29.62 "Hg4 mi
3:00 AM55 °FMostly cloudy.8 mph100%29.62 "HgN/A
2:30 AM55 °FMostly cloudy.6 mph100%29.65 "HgN/A
2:00 AM54 °FLow clouds.5 mph100%29.65 "Hg5 mi
1:30 AM54 °FDrizzle. Fog.3 mph100%29.65 "Hg1 mi
1:00 AM54 °FDrizzle. Fog.5 mph100%29.65 "Hg1 mi
12:30 AM54 °FDrizzle. Fog.5 mph100%29.65 "Hg1 mi
12:00 AM54 °FDrizzle. Fog.5 mph94%29.65 "Hg3 mi
11:00 PM
Sat, May 2
54 °FDrizzle. Fog.7 mph94%29.65 "Hg2 mi
10:30 PM54 °FDrizzle. Fog.8 mph94%29.68 "Hg2 mi
10:00 PM52 °FLight rain. Mostly cloudy.9 mph100%29.68 "Hg6 mi
9:30 PM52 °FLight rain. Fog.10 mph100%29.68 "Hg3 mi
9:00 PM54 °FLight rain. Fog.9 mph94%29.68 "Hg3 mi
8:30 PM54 °FLight rain. Mostly cloudy.8 mph94%29.71 "Hg5 mi
8:00 PM54 °FLight rain. Mostly cloudy.7 mph94%29.71 "Hg5 mi
7:30 PM54 °FDrizzle. More clouds than sun.8 mph94%29.71 "HgN/A
7:00 PM54 °FPartly sunny.8 mph94%29.74 "HgN/A
6:30 PM54 °FLight rain. Partly sunny.10 mph94%29.74 "Hg4 mi
6:00 PM55 °FLight rain. Partly sunny.8 mph94%29.74 "HgN/A
5:30 PM55 °FDrizzle. Broken clouds.8 mph94%29.77 "HgN/A
5:00 PM55 °FLight rain. Partly sunny.8 mph94%29.77 "HgN/A
4:30 PM55 °FLight rain. Partly sunny.6 mph94%29.77 "HgN/A
4:00 PM55 °FLight rain. Partly sunny.7 mph94%29.80 "HgN/A
Weather by CustomWeather, © 2015

See weather overviewHow to use our weather pages